sat.trackr.live / text

‹ back to catalog

STARLINK-5221

NORAD 54091 · 2022-136AS

PAYLOAD ACTIVE UNKNOWN

§ Identity

Operator
Country
US
Launch date
2022-10-20
Launch site
AFETR
Launch vehicle
Mass (kg)
RCS (m²)

Purposes: comms

External: N2YO · Heavens-Above · Gunter

§ Orbital elements

Epoch: 2026-05-24T22:58:41.286720Z

Period
95.44 min
Inclination
53.2134°
Eccentricity
0.0001522
Mean motion
15.08830862 rev/d
Perigee alt
538.7 km
Apogee alt
540.8 km
Semi-major
6,917.9 km
B*
1.1867e-4
RAAN
351.3385°
Arg perigee
89.2256°
Mean anomaly
270.8910°
Rev number
19,850

§ Raw data

STARLINK-52211 54091U 22136AS  26144.95742230  .00001601  00000+0  11867-3 0  99952 54091  53.2134 351.3385 0001522  89.2256 270.8910 15.08830862198500

JSON: /api/v1/satellites/54091 · /tle

For live sub-satellite position, see the globe view (requires WebGL).

§ Visibility from observer

Set your observer location to see the next 7 days of passes ≥ 10°. The values pass through the URL so the page stays shareable.

No JS? Fill the form by hand. The geolocation button needs JavaScript.